Total_Precipitation_Accumulation
0.99 1.02 0.94 1.08 1.15 1.15 1.16 1.16 1.07 1.01 0.99 0.89 0.89 0.92 0.88 0.74 0.77 0.85 0.99 0.98 1.18 1.55 1.65 1.47 1.31 1.12 1.00 0.96 1.05 1.12 1.21 1.20 1.28 1.39 1.37 1.55 1.75 1.65 1.78 1.83 1.87 2.06 2.11
0.88 1.05 1.00 0.99 1.07 1.25 1.31 1.25 1.14 1.16 1.14 0.99 1.00 1.07 1.01 0.92 0.92 0.95 1.04 0.91 0.77 0.94 1.33 1.56 1.54 1.38 1.19 1.11 1.11 1.20 1.34 1.23 1.19 1.26 1.35 1.53 1.78 1.70 1.73 1.82 1.75 1.94 2.13
0.82 0.99 0.96 0.87 0.86 1.03 1.22 1.35 1.36 1.32 1.17 1.09 1.09 1.10 1.01 1.00 0.99 1.12 1.12 1.05 0.84 0.66 0.86 1.15 1.39 1.45 1.40 1.40 1.32 1.29 1.34 1.25 1.25 1.29 1.34 1.40 1.67 1.78 1.73 1.80 1.75 1.85 1.93
0.61 0.81 0.89 0.81 0.81 0.98 1.20 1.40 1.51 1.54 1.40 1.35 1.38 1.29 1.13 1.07 1.06 1.16 1.18 1.18 1.16 0.91 0.77 0.76 0.91 1.14 1.31 1.44 1.52 1.45 1.33 1.23 1.21 1.27 1.25 1.27 1.45 1.57 1.66 1.71 1.79 1.94 1.96
0.53 0.74 0.93 0.98 0.98 1.09 1.22 1.26 1.48 1.57 1.64 1.55 1.43 1.32 1.23 1.21 1.17 1.12 1.27 1.24 1.23 1.15 0.98 0.70 0.62 0.70 0.92 1.21 1.39 1.43 1.45 1.30 1.25 1.24 1.14 1.13 1.23 1.40 1.65 1.45 1.56 1.72 1.86
0.65 0.85 1.08 1.18 1.29 1.32 1.39 1.55 1.84 1.84 1.73 1.71 1.57 1.38 1.24 1.24 1.27 1.31 1.31 1.27 1.31 1.20 1.05 0.88 0.74 0.52 0.60 0.86 1.15 1.34 1.45 1.41 1.35 1.36 1.28 1.14 1.09 1.21 1.45 1.45 1.46 1.53 1.68
0.80 1.02 1.24 1.47 1.61 1.50 1.51 1.73 2.00 2.16 2.00 1.84 1.87 1.77 1.59 1.41 1.36 1.36 1.35 1.38 1.40 1.32 1.20 1.14 1.02 0.86 0.69 0.60 0.70 1.00 1.28 1.43 1.43 1.48 1.54 1.40 1.24 1.20 1.23 1.16 1.14 1.26 1.48
0.91 0.97 1.17 1.39 1.47 1.52 1.57 1.69 1.92 2.26 2.14 1.91 2.03 2.37 2.17 1.92 1.52 1.26 1.40 1.46 1.49 1.41 1.28 1.14 1.12 1.04 0.95 0.88 0.53 0.54 0.85 1.26 1.53 1.51 1.56 1.57 1.50 1.26 1.21 1.09 1.01 1.07 1.23
1.20 1.18 1.21 1.36 1.44 1.57 1.64 1.69 1.74 2.04 2.16 2.03 2.04 2.50 2.41 2.19 2.04 1.57 1.29 1.37 1.47 1.52 1.48 1.39 1.27 1.18 1.09 1.07 0.86 0.51 0.52 0.76 1.21 1.46 1.60 1.66 1.57 1.35 1.24 1.16 1.09 1.07 1.14
1.50 1.49 1.49 1.58 1.54 1.52 1.54 1.57 1.56 1.75 2.11 2.19 2.07 1.94 1.91 1.95 2.24 1.97 1.48 1.33 1.37 1.39 1.48 1.39 1.41 1.40 1.38 1.25 1.06 0.74 0.47 0.50 0.85 1.36 1.71 1.71 1.54 1.36 1.25 1.25 1.15 1.15 1.20
2.09 2.01 1.93 1.79 1.62 1.54 1.57 1.62 1.61 1.70 1.83 1.98 1.95 1.85 1.84 1.78 1.64 1.79 1.76 1.55 1.37 1.27 1.35 1.40 1.44 1.45 1.51 1.47 1.28 0.95 0.64 0.47 0.59 1.03 1.49 1.70 1.71 1.53 1.35 1.27 1.21 1.18 1.11
2.04 1.98 1.86 1.64 1.48 1.42 1.49 1.62 1.65 1.70 1.70 1.77 1.75 1.67 1.67 1.64 1.54 1.67 1.63 1.65 1.65 1.31 1.20 1.23 1.31 1.36 1.36 1.44 1.30 1.33 0.99 0.67 0.56 0.74 1.02 1.35 1.67 1.82 1.69 1.55 1.38 1.28 1.17
1.43 1.46 1.47 1.44 1.39 1.33 1.43 1.61 1.69 1.73 1.72 1.70 1.65 1.59 1.63 1.51 1.56 1.79 1.80 1.73 1.66 1.35 1.18 1.06 1.11 1.20 1.18 1.31 1.38 1.52 1.24 0.96 0.71 0.65 0.74 0.90 1.15 1.53 1.84 1.96 1.91 1.72 1.58
1.25 1.26 1.33 1.35 1.33 1.34 1.38 1.47 1.56 1.67 1.69 1.63 1.61 1.70 1.67 1.50 1.58 1.63 1.63 1.82 1.70 1.47 1.28 1.01 0.93 0.96 1.04 1.13 1.30 1.51 1.09 1.01 0.85 0.70 0.64 0.69 0.86 1.03 1.35 1.75 2.04 2.05 1.96
0.95 1.05 1.16 1.23 1.18 1.20 1.24 1.35 1.50 1.54 1.63 1.69 1.69 1.70 1.71 1.64 1.64 1.66 1.74 1.78 1.80 1.60 1.34 1.11 0.96 0.87 0.96 1.01 1.24 1.17 0.98 1.00 0.93 0.81 0.73 0.68 0.76 0.89 1.10 1.22 1.32 1.41 1.51
0.84 0.91 0.88 0.85 0.82 0.88 0.90 1.01 1.20 1.29 1.34 1.42 1.44 1.49 1.54 1.55 1.61 1.62 1.69 1.75 1.72 1.66 1.50 1.26 1.10 1.03 1.08 0.99 1.11 1.02 1.05 1.19 1.02 0.87 0.78 0.73 0.73 0.82 0.90 0.92 0.90 0.84 0.85
0.53 0.61 0.57 0.53 0.59 0.64 0.62 0.70 0.81 0.93 1.03 1.09 1.11 1.16 1.22 1.27 1.37 1.43 1.54 1.61 1.64 1.61 1.41 1.25 1.13 1.13 1.15 1.13 1.12 1.05 1.10 1.12 1.01 0.91 0.79 0.70 0.70 0.75 0.84 0.88 0.86 0.80 0.71
0.23 0.29 0.32 0.33 0.41 0.53 0.55 0.61 0.65 0.67 0.75 0.81 0.86 0.93 0.98 1.02 1.14 1.21 1.30 1.39 1.52 1.56 1.47 1.32 1.21 1.14 1.04 1.05 1.21 1.26 1.25 1.16 1.13 1.19 1.08 0.92 0.83 0.79 0.80 0.87 0.92 0.87 0.78
0.16 0.20 0.23 0.26 0.30 0.40 0.51 0.57 0.59 0.56 0.56 0.54 0.56 0.63 0.72 0.80 0.95 1.03 1.08 1.18 1.35 1.38 1.46 1.36 1.31 1.24 1.10 1.04 1.19 1.21 1.28 1.45 1.33 1.41 1.55 1.35 1.09 0.91 0.83 0.89 0.94 0.91 0.84
0.16 0.15 0.14 0.16 0.24 0.35 0.44 0.52 0.55 0.53 0.50 0.49 0.51 0.52 0.57 0.60 0.68 0.79 0.91 1.12 1.30 1.43 1.46 1.40 1.37 1.35 1.28 1.19 1.25 1.34 1.41 1.50 1.53 1.38 1.41 1.39 1.32 1.20 1.02 0.92 0.97 1.01 0.98
0.12 0.08 0.06 0.08 0.16 0.23 0.27 0.40 0.46 0.46 0.48 0.46 0.47 0.52 0.55 0.52 0.53 0.57 0.57 0.77 1.00 1.25 1.35 1.41 1.42 1.44 1.39 1.36 1.30 1.41 1.48 1.59 1.69 1.68 1.58 1.42 1.37 1.22 1.10 1.02 0.98 1.02 1.07
0.09 0.07 0.06 0.06 0.08 0.09 0.15 0.22 0.31 0.41 0.48 0.50 0.51 0.56 0.55 0.50 0.55 0.53 0.51 0.54 0.66 0.83 1.01 1.13 1.23 1.28 1.33 1.43 1.54 1.54 1.51 1.59 1.66 1.67 1.54 1.56 1.51 1.38 1.22 1.04 1.05 1.07 1.10
0.04 0.04 0.04 0.05 0.05 0.05 0.06 0.09 0.20 0.35 0.49 0.49 0.49 0.64 0.71 0.64 0.63 0.66 0.67 0.61 0.56 0.56 0.71 0.90 1.01 1.06 1.14 1.26 1.51 1.55 1.53 1.56 1.48 1.53 1.41 1.45 1.42 1.31 1.22 1.18 1.19 1.11 1.12
0.03 0.04 0.05 0.08 0.05 0.03 0.04 0.05 0.11 0.25 0.40 0.44 0.46 0.58 0.84 0.87 0.75 0.71 0.75 0.86 0.78 0.63 0.61 0.67 0.81 0.93 0.98 1.15 1.49 1.72 1.66 1.44 1.39 1.46 1.37 1.37 1.32 1.21 1.15 1.14 1.18 1.09 1.08
0.04 0.04 0.05 0.07 0.06 0.05 0.05 0.06 0.10 0.20 0.30 0.34 0.39 0.51 0.68 0.83 0.76 0.72 0.72 0.79 0.83 0.73 0.67 0.69 0.66 0.73 0.85 1.02 1.29 1.56 1.67 1.60 1.44 1.39 1.27 1.19 1.21 1.22 1.25 1.21 1.15 1.14 1.07
0.05 0.05 0.05 0.04 0.04 0.04 0.05 0.07 0.08 0.13 0.18 0.18 0.25 0.41 0.56 0.56 0.53 0.60 0.71 0.81 0.90 0.75 0.65 0.75 0.74 0.76 0.78 0.96 1.29 1.50 1.62 1.60 1.48 1.44 1.34 1.24 1.24 1.26 1.44 1.40 1.23 1.17 1.11